Hoquiam, WA
on Sunday, November 4, 2012

Sunday
Previous Day Next Day
Daily Summary
 ActualAverageRecord
Temperature
Mean Temperature °F 48°F  
Max Temperature 59°F 54°F 67°F (1980)
Min Temperature 55°F 42°F 30°F (1961)
Degree Days
Heating Degree Days 9 17  
Month to date heating degree days 66  
Cooling Degree Days 0 0  
Month to date cooling degree days 0  
Year to date cooling degree days 23  
Growing Degree Days6 (Base °F )  
Moisture
Dew Point 56°F   
Average Humidity 98    
Maximum Humidity 100    
Minimum Humidity 93    
Precipitation
Precipitation 0.66 in 0.34 in 1.78 in (1969)
Month to date precipitation 1.37  
Year to date precipitation 47.79  
Wind
Wind Speed 8 mph   
Max Wind Speed 20 mph   
Max Gust Speed 26 mph   
Visibility 4 miles   
Events Rain   

Key: T is trace of precipitation, MM is missing value
Source: NWS Daily Summary
Time(PST)TemperatureDew PointHumidity Pressure Visibility Wind DirectionWind SpeedGust SpeedPrecipitationEvents Conditions
12:18 AM 55.4°F 53.6°F 94% 30.15 in 3.0 miles ENE 6.9 mph - 0.02 in Rain Light Rain
12:53 AM 55.0°F 55.0°F 100% 30.16 in 4.0 miles ENE 5.8 mph - 0.03 in   Overcast
1:17 AM 55.4°F 55.4°F 100% 30.16 in 2.5 miles ENE 5.8 mph - N/A   Overcast
1:30 AM 55.4°F 55.4°F 100% 30.16 in 2.0 miles East 4.6 mph - N/A   Overcast
1:32 AM 55.4°F 55.4°F 100% 30.17 in 1.8 miles East 5.8 mph - N/A   Overcast
1:49 AM 55.4°F 55.4°F 100% 30.16 in 2.0 miles ENE 5.8 mph - N/A   Overcast
1:53 AM 55.0°F 55.0°F 100% 30.17 in 2.0 miles ENE 5.8 mph - N/A   Overcast
1:05 AM 55.4°F 55.4°F 100% 30.16 in 5.0 miles ENE 4.6 mph - N/A   Overcast
1:17 AM 55.4°F 55.4°F 100% 30.16 in 7.0 miles ENE 4.6 mph - N/A   Overcast
1:34 AM 55.4°F 55.4°F 100% 30.16 in 2.5 miles ENE 4.6 mph - N/A   Overcast
1:41 AM 55.4°F 55.4°F 100% 30.16 in 3.0 miles ENE 5.8 mph - N/A   Overcast
1:53 AM 55.0°F 55.0°F 100% 30.16 in 3.0 miles ENE 6.9 mph - 0.01 in   Overcast
2:20 AM 55.4°F 55.4°F 100% 30.16 in 4.0 miles ENE 4.6 mph - N/A   Overcast
2:34 AM 55.4°F 55.4°F 100% 30.16 in 3.0 miles NE 6.9 mph - N/A   Overcast
2:53 AM 55.0°F 55.0°F 100% 30.18 in 5.0 miles NE 5.8 mph - N/A   Overcast
3:49 AM 55.4°F 55.4°F 100% 30.15 in 4.0 miles ENE 6.9 mph - N/A   Overcast
3:53 AM 55.9°F 55.0°F 97% 30.16 in 4.0 miles ENE 5.8 mph - N/A   Overcast
4:53 AM 55.9°F 55.0°F 97% 30.17 in 5.0 miles NE 6.9 mph - N/A   Overcast
5:41 AM 55.4°F 55.4°F 100% 30.16 in 2.5 miles ENE 8.1 mph - 0.01 in Rain Light Rain
5:51 AM 55.4°F 55.4°F 100% 30.15 in 2.5 miles ENE 6.9 mph - 0.01 in Rain Light Rain
5:53 AM 55.9°F 55.0°F 97% 30.17 in 2.5 miles ENE 8.1 mph - 0.01 in Rain Light Rain
6:03 AM 55.4°F 55.4°F 100% 30.15 in 3.0 miles ENE 8.1 mph - 0.00 in   Overcast
6:30 AM 55.4°F 55.4°F 100% 30.15 in 4.0 miles NE 9.2 mph - 0.01 in   Overcast
6:53 AM 55.9°F 55.0°F 97% 30.17 in 3.0 miles ENE 8.1 mph - 0.01 in   Overcast
7:07 AM 55.4°F 55.4°F 100% 30.16 in 2.5 miles ENE 8.1 mph - 0.00 in Rain Light Rain
7:24 AM 55.4°F 55.4°F 100% 30.17 in 3.0 miles ENE 8.1 mph - 0.00 in   Overcast
7:33 AM 55.4°F 55.4°F 100% 30.17 in 2.5 miles ENE 8.1 mph - 0.00 in   Overcast
7:43 AM 55.4°F 55.4°F 100% 30.18 in 2.0 miles ENE 6.9 mph - 0.00 in   Overcast
7:48 AM 55.4°F 55.4°F 100% 30.18 in 1.8 miles ENE 5.8 mph - 0.00 in   Overcast
7:53 AM 55.9°F 55.9°F 100% 30.19 in 1.8 miles ENE 8.1 mph - 0.00 in   Overcast
8:53 AM 57.0°F 57.0°F 100% 30.21 in 1.2 miles ENE 6.9 mph - 0.02 in   Overcast
9:20 AM 57.2°F 57.2°F 100% 30.20 in 0.8 miles East 8.1 mph - N/A   Overcast
9:53 AM 57.0°F 57.0°F 100% 30.23 in 0.8 miles East 6.9 mph - 0.01 in   Overcast
10:01 AM 57.2°F 57.2°F 100% 30.22 in 1.0 miles SE 6.9 mph - N/A   Overcast
10:53 AM 57.0°F 57.0°F 100% 30.25 in 1.5 miles SSE 5.8 mph - 0.01 in   Overcast
11:43 AM 57.2°F 57.2°F 100% 30.24 in 2.5 miles South 6.9 mph - 0.01 in   Overcast
11:53 AM 57.9°F 57.0°F 97% 30.25 in 2.5 miles South 13.8 mph 18.4 mph 0.01 in   Overcast
12:01 PM 57.2°F 57.2°F 100% 30.24 in 4.0 miles South 11.5 mph - N/A   Overcast
12:53 PM 57.9°F 57.0°F 97% 30.27 in 5.0 miles South 13.8 mph - N/A   Overcast
1:53 PM 57.9°F 55.9°F 93% 30.26 in 10.0 miles South 17.3 mph - N/A   Overcast
2:53 PM 57.9°F 55.9°F 93% 30.25 in 10.0 miles South 12.7 mph 21.9 mph N/A   Overcast
3:53 PM 57.9°F 55.9°F 93% 30.25 in 6.0 miles South 11.5 mph 19.6 mph 0.01 in Rain Light Rain
4:34 PM 57.2°F 55.4°F 94% 30.25 in 2.5 miles South 16.1 mph - 0.02 in   Overcast
4:53 PM 57.9°F 55.9°F 93% 30.26 in 3.0 miles South 13.8 mph - 0.03 in Rain Light Rain
5:03 PM 57.2°F 55.4°F 94% 30.24 in 4.0 miles South 15.0 mph 23.0 mph 0.01 in Rain Light Rain
5:37 PM 57.2°F 55.4°F 94% 30.24 in 10.0 miles South 18.4 mph 23.0 mph 0.01 in   Overcast
5:53 PM 57.0°F 55.9°F 96% 30.25 in 10.0 miles South 19.6 mph 26.5 mph 0.01 in   Overcast
6:23 PM 57.2°F 55.4°F 94% 30.25 in 2.0 miles South 16.1 mph - 0.02 in   Overcast
6:38 PM 57.2°F 55.4°F 94% 30.25 in 4.0 miles South 16.1 mph - 0.02 in   Overcast
6:53 PM 57.0°F 55.9°F 96% 30.28 in 5.0 miles South 15.0 mph - 0.03 in Rain Light Rain
7:02 PM 57.2°F 55.4°F 94% 30.27 in 1.8 miles South 16.1 mph - 0.05 in Rain Rain
7:16 PM 57.2°F 55.4°F 94% 30.27 in 2.0 miles South 16.1 mph - 0.15 in Rain Rain
7:29 PM 57.2°F 55.4°F 94% 30.27 in 3.0 miles South 15.0 mph - 0.20 in Rain Rain
7:50 PM 55.4°F 55.4°F 100% 30.27 in 3.0 miles South 15.0 mph - 0.26 in Rain Rain
7:53 PM 57.0°F 55.9°F 96% 30.28 in 3.0 miles South 15.0 mph - 0.26 in Rain Rain
8:06 PM 57.2°F 55.4°F 94% 30.26 in 3.0 miles South 16.1 mph - 0.05 in Rain Rain
8:09 PM 57.2°F 55.4°F 94% 30.27 in 2.5 miles South 15.0 mph - 0.06 in Rain Rain
8:18 PM 57.2°F 55.4°F 94% 30.27 in 5.0 miles South 13.8 mph - 0.07 in Rain Light Rain
8:53 PM 55.9°F 55.0°F 97% 30.28 in 3.0 miles SSW 16.1 mph - 0.18 in Rain Light Rain
9:04 PM 55.4°F 55.4°F 100% 30.27 in 4.0 miles SW 11.5 mph - 0.01 in Rain Light Rain
9:17 PM 55.4°F 55.4°F 100% 30.28 in 6.0 miles West 6.9 mph - 0.02 in Rain Light Rain
9:45 PM 55.4°F 55.4°F 100% 30.29 in 4.0 miles West 9.2 mph - 0.02 in Rain Light Rain
9:53 PM 55.9°F 55.0°F 97% 30.31 in 4.0 miles WSW 8.1 mph - 0.03 in   Overcast
10:42 PM 55.4°F 55.4°F 100% 30.30 in 3.0 miles WSW 9.2 mph - N/A   Overcast
10:53 PM 55.0°F 54.0°F 96% 30.33 in 7.0 miles West 12.7 mph - N/A   Overcast
Moon Phase
Nov. 04 Nov. 06 Nov. 13 Nov. 20 Nov. 28
Sunrise:07:03 AM (PST) Moon Rise:09:35 PM (PST)11/4
Sunset:04:54 PM (PST) Moon Set:11:54 AM (PST)11/4

Copyright © 2014 The Weather Underground, Inc.